Вернуться в каталог

STARLINK-37211

АктивенСвязьSSO
NORAD 68620·PAYLOAD·🇺🇸 United States

Запущен Apr 5, 2026 с Vandenberg Space Force Base

Loading…

Ближайшие Пролёты (ближайшие 24 часа)

TLE

СвежийSource: CelesTrak SupGP

Эпоха: Sep 15, 2026, 03:28 UTC

1 68620C 26073U   26258.14493056 -.00047645  00000+0 -14783-2 0  2585
2 68620  97.2853  96.3022 0001985  86.6018 294.0315 15.33477645    12

Отслеживайте STARLINK-37211 в реальном времени с AllMySat

Download on the App Store